Location: Unspecified
(47.3532°N, 122.5883°W)
Time: 12:17:30
(UTC-08:00)

ISS - Visible Passes

Search period start: 17 January 2018 00:00
Search period end: 27 January 2018 00:00
Orbit: 402 x 407 km, 51.6° (Epoch: 17 January)

Date Brightness Start Highest point End Pass type
(mag) Time Alt. Az. Time Alt. Az. Time Alt. Az.
24 Jan -1.1 19:18:39 10° SSW 19:19:10 13° SSW 19:19:10 13° SSW visible
25 Jan -1.8 18:27:11 10° S 18:29:14 16° SE 18:29:17 16° SE visible
26 Jan -2.7 19:09:45 10° SW 19:11:59 36° SSW 19:11:59 36° SSW visible
